Terminal Aerodrome Forecast
Issued by NWS Greer, SC

Home | Current Version | Previous Version | Text Only | Print | Product List | Glossary On
Versions: 1 2 3 4 5 6 7 8 9 10 11 12 13 14 15 16 17 18 19 20 21 22 23 24 25 26 27 28 29 30 31 32 33 34 35 36 37 38 39 40 41 42 43 44 45 46 47 48 49 50
000
FTUS42 KGSP 022321
TAFCLT
TAF
KCLT 022321Z 0300/0406 22009G15KT P6SM FEW050 FEW250
     FM030200 22008KT P6SM FEW050
     FM031800 23009G15KT P6SM FEW050 SCT250
     FM040200 22008KT P6SM FEW050=

USA.gov is the U.S. government's official web portal to all federal, state and local government web resources and services.